Location: Azul
(36.7830°S, 59.8500°W)
Time: 09:23:18
(UTC-03:00)

DOVE 4 - Pass Details

Date: 28 October 2021
Orbit: 588 x 799 km, 97.8° (Epoch: 07 December)

Event Time Altitude Azimuth Distance (km) Brightness Sun altitude
Exits shadow 23:40:56 18° 152° (SSE) 1,889 ? -37.6°
Drops below altitude 10° 23:42:44 10° 167° (SSE) 2,405 ? -37.7°
Sets 23:45:25 0° 178° (S) 3,339 ? -37.9°
